EHI
7 10 13 10 6 6 8 10 9 8 6 4 2 1 0 0 0 0 0 0 0 0 0 0 0 0 0 0 0 0 0 0 0 0 0 0 0 0 0 0 0 0 0
7 10 12 11 8 8 9 12 12 9 7 5 3 1 0 0 0 0 0 0 0 0 0 0 0 0 0 0 0 0 0 0 0 0 0 0 0 0 0 0 0 0 0
9 9 11 13 11 10 12 14 14 12 9 6 3 1 0 0 0 0 0 0 0 0 0 0 0 0 0 0 0 0 0 0 0 0 0 0 0 0 0 0 0 0 0
10 9 11 14 13 12 14 15 14 13 10 7 3 1 0 0 0 0 0 0 0 0 0 0 0 0 0 0 0 0 0 0 0 0 0 0 0 0 0 0 0 0 0
10 10 11 13 13 11 12 14 13 11 9 7 4 1 0 0 0 0 0 0 0 0 0 0 0 0 0 0 0 0 0 0 0 0 0 0 0 0 0 0 0 0 0
10 10 10 11 11 10 10 12 11 10 9 7 4 1 0 0 0 0 0 0 0 0 0 0 0 0 0 0 0 0 0 0 0 0 0 0 0 0 0 0 0 0 0
11 9 8 9 10 10 11 11 10 10 9 7 4 1 0 0 0 0 1 1 1 0 0 0 0 0 0 0 0 0 0 0 0 0 0 0 0 0 0 0 0 0 0
12 11 8 7 8 10 11 10 10 10 9 7 4 1 0 0 0 1 2 2 1 0 0 0 0 0 0 0 0 0 0 0 0 0 0 0 0 0 0 0 0 0 0
13 12 9 6 5 7 8 8 9 9 9 6 4 2 1 0 1 2 3 3 2 0 0 0 0 0 0 0 0 0 0 0 0 0 0 0 0 0 0 0 0 0 0
12 12 10 7 4 3 4 6 7 8 7 5 3 2 1 0 1 2 2 2 1 0 0 0 0 0 0 0 0 0 0 0 0 0 0 0 0 0 0 0 0 0 0
11 11 11 9 6 3 3 4 6 6 4 3 2 1 0 0 0 1 1 1 0 0 0 0 0 0 0 0 0 0 0 0 0 0 0 0 0 0 0 0 0 0 0
10 10 10 9 8 6 5 6 8 7 4 3 2 1 1 1 0 0 0 0 0 0 0 0 0 0 0 0 0 0 0 0 0 0 0 0 0 0 0 0 0 0 0
10 9 9 8 8 6 7 9 11 10 8 5 3 3 2 2 1 0 0 0 0 0 0 0 0 0 0 0 0 0 0 0 0 0 0 0 0 0 0 0 0 0 0
9 8 7 7 6 5 6 9 11 12 11 7 4 3 3 2 1 0 0 0 0 0 0 0 0 0 0 0 0 0 0 0 0 0 0 0 0 0 0 0 0 0 0
7 7 6 5 4 4 5 7 8 10 10 8 5 4 3 2 1 0 0 0 0 0 0 0 0 0 0 0 0 0 0 0 0 0 0 0 0 0 0 0 0 0 0
4 3 3 3 2 2 3 4 5 5 6 6 5 3 3 2 1 0 0 0 0 0 0 0 0 0 0 0 0 0 0 0 0 0 0 0 0 0 0 0 0 0 0
1 1 1 1 0 1 1 2 3 2 2 2 3 3 2 1 0 0 0 0 0 0 0 0 0 0 0 0 0 0 0 0 0 0 0 0 0 0 0 0 0 0 0
0 0 0 0 0 0 0 1 2 1 0 1 2 3 2 1 0 0 0 0 0 0 0 0 0 0 0 0 0 0 0 0 0 0 0 0 0 0 0 0 0 0 0
0 0 0 0 0 0 0 0 0 0 0 0 1 2 2 2 1 1 0 0 0 0 0 0 0 0 0 0 0 0 0 0 0 0 0 0 0 0 0 0 0 0 0
0 0 0 0 0 0 0 0 0 0 0 0 0 1 2 2 2 1 0 0 0 0 0 0 0 0 0 0 0 0 0 0 0 0 0 0 0 0 0 0 0 0 0
0 0 0 0 0 0 0 0 0 0 0 0 0 0 1 1 1 1 0 0 0 0 0 0 0 0 0 0 0 0 0 0 0 0 0 0 0 0 0 0 0 0 0
0 0 0 0 0 0 0 0 0 0 0 0 0 0 0 0 0 0 0 0 0 0 0 0 0 0 0 0 0 0 0 0 0 0 0 0 0 0 0 0 0 0 0
0 0 0 0 0 0 0 0 0 0 0 0 0 0 0 0 0 0 0 0 0 0 0 0 0 0 0 0 0 0 0 0 0 0 0 0 0 0 0 0 0 0 0
0 0 0 0 0 0 0 0 0 0 0 0 0 0 0 0 0 0 0 0 0 0 0 0 0 0 0 0 0 0 0 0 0 0 0 0 0 0 0 0 0 0 0
0 0 0 0 0 0 0 0 0 0 0 0 0 0 0 0 0 0 0 0 0 0 0 0 0 0 0 0 0 0 0 0 0 0 0 0 0 0 0 0 0 0 0
0 0 0 0 0 0 0 0 0 0 0 0 0 0 0 0 0 0 0 0 0 0 0 0 0 0 0 0 0 0 0 0 0 0 0 0 0 0 0 0 0 0 0
Wind_Speed
6 6 7 7 9 9 9 9 9 9 8 9 9 9 8 8 7 7 6 6 6 6 6 7 7 7 7 7 7 6 6 5 5 5 5 5 4 4 4 4 2 4 6
6 7 8 8 9 9 9 9 9 8 8 8 8 8 8 7 7 7 6 6 6 6 6 6 7 7 7 7 6 6 6 5 5 4 2 3 3 3 3 3 4 4 4
6 7 9 9 9 9 9 10 9 9 8 8 7 7 7 7 6 6 6 6 6 5 5 6 6 6 6 6 6 5 5 5 4 2 3 2 4 3 2 2 2 2 2
6 6 8 10 10 10 10 10 9 9 8 8 7 6 6 6 6 6 6 6 6 5 5 6 6 5 5 5 4 4 4 4 3 3 2 1 1 4 1 1 0 0 1
6 6 8 9 10 9 9 9 9 9 8 8 7 7 7 6 6 6 6 6 6 5 5 5 5 5 4 4 4 4 4 4 1 4 1 0 0 3 1 1 1 2 2
7 6 9 8 10 9 9 9 9 9 8 8 7 7 7 6 6 6 6 6 5 5 4 4 4 4 4 4 3 3 3 2 4 1 1 1 0 2 1 2 2 3 3
7 6 8 8 9 9 9 9 9 8 8 8 7 7 6 6 6 6 6 5 5 4 4 4 4 3 3 4 3 3 3 3 3 2 2 1 1 2 3 3 3 4 4
6 6 8 9 9 9 9 9 8 8 8 7 7 7 7 7 6 6 6 5 5 5 4 4 4 4 3 3 3 3 3 4 3 2 2 2 2 3 4 4 4 5 5
6 6 6 7 8 9 8 8 8 8 7 7 7 7 7 7 7 6 6 5 5 5 5 4 4 3 3 3 3 3 3 4 4 2 2 2 3 4 4 4 5 5 5
6 5 5 6 6 6 7 8 8 8 7 7 7 7 6 6 6 6 5 5 5 5 4 4 4 3 3 2 3 3 2 5 2 2 2 2 3 4 4 4 4 4 5
5 5 4 5 5 5 5 6 7 7 7 5 6 6 3 3 3 3 6 5 5 4 4 4 4 3 2 1 2 2 3 2 2 2 2 5 5 5 5 4 4 4 3
5 5 4 4 4 4 4 4 4 4 4 3 3 3 2 2 2 2 5 4 4 3 2 3 3 1 2 0 1 2 2 2 2 1 3 5 5 5 5 4 4 3 3
5 5 4 4 4 4 3 2 2 2 3 3 3 3 2 2 2 1 1 1 1 1 1 1 1 1 1 1 1 1 2 2 1 2 3 6 6 6 5 4 4 4 3
5 5 4 4 3 3 3 2 2 2 2 2 2 2 2 2 1 1 1 2 1 1 2 1 1 1 1 1 1 1 1 1 1 2 3 6 7 6 6 5 4 4 4
5 5 4 4 4 3 3 2 2 2 2 2 2 2 2 2 2 2 2 2 2 2 1 2 2 1 1 1 1 1 1 2 2 1 2 5 7 7 6 6 5 5 5
5 4 4 4 3 3 3 2 2 2 2 2 2 3 2 2 2 2 2 2 2 2 2 2 2 1 1 1 1 1 1 2 2 2 2 3 6 7 7 6 6 6 6
5 4 4 4 3 3 3 3 2 2 2 2 2 3 2 2 2 2 2 2 2 2 2 2 2 1 1 1 1 2 2 2 2 2 2 2 2 5 7 7 7 7 8
4 4 4 3 4 4 3 3 2 2 2 2 2 2 3 3 2 2 2 2 3 2 2 2 2 2 1 1 1 1 1 1 2 2 2 2 2 3 4 8 8 9 9
4 5 4 4 4 4 4 3 2 2 2 2 2 2 2 3 2 2 2 2 2 2 2 2 2 2 2 2 1 1 1 1 2 2 3 3 4 3 3 5 7 9 10
4 4 4 4 4 4 3 3 2 2 2 2 2 2 2 2 2 2 1 2 2 2 2 2 2 2 1 2 1 0 1 1 1 2 3 3 3 4 4 4 3 5 9
4 4 4 4 4 3 3 2 2 1 1 1 1 2 2 2 2 1 1 1 2 2 2 2 1 1 1 2 1 1 1 1 1 1 2 2 3 4 4 4 4 3 4
5 4 4 4 4 3 2 2 1 1 1 1 1 1 1 1 2 1 1 1 2 1 2 2 1 1 1 1 2 2 2 3 2 1 1 2 3 3 4 4 4 5 4
5 4 4 4 3 3 3 2 2 2 1 1 1 0 0 1 1 1 1 1 1 1 1 2 1 1 1 0 1 2 3 2 1 1 0 1 2 2 2 3 4 5 5
5 4 5 4 4 3 3 3 3 2 1 1 1 1 1 1 0 0 0 1 1 1 1 2 2 2 2 1 1 1 2 2 3 2 2 0 1 2 2 2 3 4 4
5 5 4 5 4 4 4 3 3 2 1 1 1 1 2 1 1 1 1 1 1 1 1 1 1 2 2 2 1 1 2 2 3 3 3 2 2 1 1 2 2 2 3
5 5 5 5 5 5 5 4 4 4 3 2 3 2 2 1 2 2 2 2 2 2 2 2 2 2 2 2 2 2 2 2 2 3 4 4 3 2 2 1 1 2 2
Wind_Direction
149 146 138 140 135 126 123 125 124 121 119 120 118 116 115 112 108 104 96 90 88 81 80 80 80 80 76 73 72 71 70 72 77 76 75 73 71 70 67 54 18 95 73
144 145 139 139 136 127 121 115 116 114 114 116 117 115 113 108 105 100 94 88 84 80 79 80 77 75 72 69 68 68 67 67 76 80 87 128 106 77 72 54 17 51 68
138 141 146 134 132 126 121 115 111 109 109 110 113 112 110 106 104 101 96 89 86 82 79 77 74 70 69 67 63 63 66 65 67 68 234 177 117 100 69 66 58 54 64
132 136 139 129 128 123 119 115 112 111 108 107 106 107 105 102 99 97 91 83 78 77 73 71 70 68 66 62 58 55 57 61 51 278 242 75 106 105 77 21 7 355 4
126 127 121 125 125 122 119 115 112 109 107 102 100 97 95 96 95 93 88 79 71 69 67 67 65 63 59 53 48 47 49 47 327 260 331 358 61 98 287 306 313 284 287
122 120 116 119 124 121 118 115 111 108 104 99 96 93 90 89 88 87 82 75 69 68 68 67 64 61 53 44 41 42 41 20 274 303 314 299 356 82 286 285 282 278 272
122 117 119 114 121 119 114 110 107 105 103 98 94 94 94 88 84 80 77 74 70 68 65 63 60 54 45 39 39 38 31 337 305 326 323 307 4 349 287 282 277 278 271
123 120 119 109 111 111 110 107 105 104 101 98 94 91 90 89 83 79 74 70 67 63 58 55 50 47 43 40 36 35 24 322 297 309 303 310 15 301 284 279 272 272 268
119 121 124 124 121 111 105 106 104 101 98 95 90 84 81 80 79 77 71 65 61 56 51 46 43 36 34 38 35 29 11 319 293 320 320 325 1 302 292 286 283 275 272
103 108 121 125 126 131 123 106 102 97 92 89 84 81 83 89 88 80 72 59 56 50 45 42 37 30 26 32 34 27 334 272 294 318 316 12 357 313 305 302 298 287 280
98 97 108 121 124 123 124 120 117 105 94 100 95 86 100 106 99 97 67 54 50 44 41 39 31 25 358 100 62 353 271 287 330 330 340 9 335 318 316 310 308 307 300
117 104 100 108 119 122 117 126 125 121 116 109 101 103 98 86 73 65 89 61 51 39 42 35 18 344 273 215 131 239 282 321 324 336 16 7 335 326 324 322 321 320 324
125 111 101 105 111 115 117 119 115 116 116 107 89 89 86 79 75 63 78 89 70 34 25 38 268 339 334 351 323 311 331 328 332 348 24 14 345 341 340 337 330 328 323
127 117 107 104 104 102 101 108 116 112 106 95 85 66 69 70 53 48 44 30 18 12 357 343 331 358 343 342 328 325 327 321 335 353 28 23 0 355 356 357 352 350 347
133 122 111 107 106 104 101 99 104 97 99 99 86 74 57 63 55 48 42 30 20 10 356 343 333 351 349 359 353 345 349 347 351 355 34 38 15 8 8 7 5 359 351
135 127 121 113 110 116 111 101 88 81 85 88 79 67 56 55 52 47 47 29 19 5 354 333 349 337 352 354 355 356 353 358 3 4 11 45 37 24 19 15 12 7 2
140 133 128 123 120 123 113 100 91 85 74 79 80 76 67 56 50 48 41 29 18 1 356 347 5 337 8 2 1 5 5 6 13 12 14 10 28 41 29 19 17 19 17
141 136 128 124 128 122 111 103 94 85 75 65 72 75 65 57 47 45 41 31 11 0 355 0 0 349 2 348 355 10 11 18 20 23 24 20 12 17 40 35 30 28 26
145 137 135 133 132 122 112 109 95 83 72 62 60 68 66 58 45 45 40 26 10 8 7 2 3 352 352 356 351 355 7 21 26 32 43 36 29 22 25 49 41 35 29
149 142 140 139 135 128 124 123 121 103 85 67 59 64 64 64 54 45 44 30 11 13 13 6 9 8 349 345 324 348 27 40 34 31 33 43 40 36 32 31 33 39 35
157 153 152 151 146 147 147 149 147 124 104 82 54 47 53 56 56 49 29 34 17 14 5 357 348 351 8 347 288 245 178 112 66 56 38 39 47 42 38 32 26 19 27
171 166 164 168 159 164 164 139 115 106 124 79 71 45 26 41 46 40 31 30 19 356 359 357 350 304 351 349 309 281 249 196 155 75 36 37 38 40 37 32 31 26 19
183 178 177 178 171 172 163 141 138 153 167 168 174 178 46 15 45 30 11 11 17 354 351 341 323 294 284 267 313 299 290 293 308 189 100 32 21 20 24 23 27 23 17
190 183 184 181 180 179 176 180 184 196 200 187 196 190 187 223 235 354 301 319 341 325 323 334 315 289 278 266 257 300 308 320 288 279 208 212 346 340 357 6 10 16 12
186 184 187 186 185 184 187 194 202 210 215 198 228 220 213 201 210 224 258 267 273 281 294 303 296 277 267 264 268 270 259 259 257 272 276 261 270 281 313 326 343 358 3
179 185 191 192 194 193 194 202 212 216 215 224 237 239 229 222 214 214 230 246 253 258 263 267 266 261 262 254 253 247 260 263 264 264 276 282 286 277 271 280 310 341 350